Location: Peterborough
(44.3091°N, 78.3197°W)
Time: 19:59:08
(UTC-04:00)

Explorer 11/Cluster Stage 4 - Pass Details

Date: 26 March 2023
Orbit: 466 x 1237 km, 28.8° (Epoch: 06 June)

Event Time Altitude Azimuth Distance (km) Brightness Sun altitude
Rises 09:03:44 0° 229° (SW) 2,907 9.2 20.0°
Reaches altitude 10° 09:06:53 10° 205° (SSW) 2,149 8.8 20.6°
Maximum altitude 09:09:39 15° 171° (S) 1,977 9.1 21.0°
Drops below altitude 10° 09:12:43 10° 139° (SE) 2,437 10.3 21.6°
Sets 09:16:42 0° 117° (ESE) 3,569 11.4 22.2°
